Tracking 29528 objects as of 12-Sep-2024
HD Live streaming from Space Station
objects crossing your sky now

FENGYUN 1C DEB

Track FENGYUN 1C DEB now!
10-day predictions


NORAD ID: 31066
Int'l Code: 1999-025BFL
Perigee: 351.6 km
Apogee: 403.9 km
Inclination: 99.0 °
Period: 92.0 minutes
Semi major axis: 6748 km
RCS: 0.002 m2 (small)
Launch date: May 10, 1999
Source: People's Republic of China (PRC)
Launch site: Taiyaun Space Center, China (TSC)

Note: This is SATELLITE DEBRIS
Your satellite tracking list
Your tracking list is empty




NASA's NSSDC Master Catalog

Two Line Element Set (TLE):
1 31066U 99025BFL 24255.94683225  .00421799  00000-0  38075-2 0  9995
2 31066  98.9974  72.7912 0038737  90.2967 270.2727 15.65922275948904
Source of the keplerian elements: AFSPC